Showing default

TUBSAT, 25757

Orbit data source: Space-Track

TUBSAT, 25757 is a payload satellite owned by DLR (DE) in SSO that was launched on Wed, 26 May 1999 UTC via a PSLV launch vehicle from the Sirharikota (SRI). Payload-class satellites include a variety of spacecraft equipped with specific instruments for various scientific and technological missions. These include communications satellites like Starlink; space stations such as the ISS; scientific satellites like the Hubble; Earth observation satellites from companies like Planet Labs, Umbra, and HawkEye 360; GPS; miniature CubeSats for education and research; and military/defense satellites.

Loading next visibility...
Identifier
25757, 1999-029B
Orbit
SSO
Country
Flag of DEDE / GER
Related business
Manufacturer
TUB
Mission
Operational Civil Imaging
Bus & Motor
TUBSAT, Unknown motor
Mass
45 kg wet, 45 kg dry
Launch date (UTC)
1999-05-26 (26 years ago)
Launch vehicle
PSLV
Launch site
Sirharikota (SRI)
Object type
Payload
Rocket body
Debris
Shape & HBR
Box, 1.0 m
Radar Cross Section
0.135 m², Medium (>0.1 m² and < 1m²)

Expand to show TLE details & history
Last TLE update: 20 hours ago

TLE from 20 hours ago
0 TUBSAT
1 25757U 99029B   25305.46688081  .00000212  00000-0  64066-4 0  9992
2 25757  98.6530 288.7139 0013546 326.9549  33.0798 14.52333186400194
Epoch: 2025-11-01T11:12Z
TLE epoch observation values (Epoch: 2025-11-01T11:12:18.501Z)
Latitude
-0.00004°
Longitude
79.64027°
Altitude
712.946 km
Speed
7.503 km/s
True Right ascension
19h 14m 51s
True Declination
0° 00' 00"
Sunlit
Object was in daylight at epoch
Visualization orbit readout
Latitude
Unknown
Longitude
Unknown
Altitude
Unknown
Speed
Unknown
Apparent Right ascension
Unknown
Apparent Declination
Unknown
Sunlit
N/A
Visualization observer readout
Local Sidereal Time
02:53:08
Azimuth
Unknown
Elevation
Unknown
Doppler factor
Unknown
Orbital elements
Apogee altitude
724.76 km
Perigee altitude
705.542 km
Semi-major axis
7,093.288 km
Eccentricity
0.00135
Inclination
98.653°
RAAN
288.7139°
Arg. of periapsis
326.9549°
True anomaly
33.16464°
Mean anomaly
33.0798°
Eccentric anomaly
33.12221°
Mean motion
3.63305 °/min
Orbital period
99.09 mins
BSTAR
0.000064066
Loading maneuver chart data...
Computing Atmospheric mass density...
Loading historical data...
Loading historical data...
Loading historical data...
Loading historical data...
Loading historical data...
Loading historical data...
Loading historical data...
Other satellites on launch #29 in the year 1999 (1999-05-26 UTC)

Documentation

Showing up to 5 results
|